Date String (YYYY-MM-DD hh:mm:ss) UTC,Instrument flags,Ambient pressure (hPa),Sample flow (lpm),Bypass flow (lpm),Sample temperature (°C),Ambient temperature (°C),ASC tube jacket temperature (°C),LED temperature (°C),Box temperature (°C),Sample RH (%),Span deviation,Mass concentration (μg/m³),Mass concentration (μg/m³),Mass concentration (μg/m³)
DateTimeUTC,F1_M11,P_M11,Q1_M11,Q2_M11,T1_M11,T2_M11,T3_M11,T4_M11,T5_M11,U1_M11,ZSPAN_M11,X0_M11,X2_M11,X1_M11
2022-02-26 11:00:00,,0829.4,4.99,0.00,22.0,22.2,00.0,31.0,23.8,06.9,0000.7,0016.14,0011.10,0010.30
2022-02-26 11:01:00,,0829.2,5.00,0.00,22.0,21.9,00.0,30.9,23.7,06.9,0000.7,0015.97,0011.07,0010.29
2022-02-26 11:02:00,,0829.2,5.00,0.00,22.0,21.6,00.0,30.9,23.6,06.9,0001.0,0015.80,0011.01,0010.28
2022-02-26 11:03:00,,0829.2,5.00,0.00,21.9,21.4,00.0,30.9,23.5,06.9,0000.9,0015.74,0010.97,0010.26
2022-02-26 11:04:00,,0829.2,4.99,0.00,21.9,21.2,00.0,30.9,23.5,06.9,0000.8,0015.75,0010.99,0010.28
2022-02-26 11:05:00,,0829.3,5.00,0.00,21.8,21.1,00.0,30.9,23.4,06.9,0000.8,0015.77,0011.03,0010.32
2022-02-26 11:06:00,,0829.3,5.01,0.00,21.8,21.3,00.0,30.9,23.5,06.9,0000.7,0015.59,0011.01,0010.32
2022-02-26 11:07:00,,0829.3,5.00,0.00,21.9,22.1,00.0,30.9,23.7,06.9,0000.6,0015.50,0010.99,0010.31
2022-02-26 11:08:00,,0829.4,5.01,0.00,22.1,22.9,00.0,31.0,23.9,06.8,0000.4,0014.88,0010.91,0010.24
2022-02-26 11:09:00,,0829.3,5.00,0.00,22.2,22.9,00.0,31.0,24.1,06.8,0000.4,0014.80,0010.87,0010.19
2022-02-26 11:10:00,,0829.3,4.99,0.00,22.2,22.6,00.0,31.0,24.0,06.8,0000.2,0014.82,0010.88,0010.19
2022-02-26 11:11:00,,0829.3,4.99,0.00,22.2,22.2,00.0,31.0,24.0,06.8,0000.2,0014.85,0010.88,0010.19
2022-02-26 11:12:00,,0829.2,5.01,0.00,22.1,21.9,00.0,31.0,23.9,06.8,0000.5,0014.86,0010.86,0010.16
2022-02-26 11:13:00,,0829.3,5.00,0.00,22.1,21.7,00.0,31.0,23.8,06.8,0000.6,0014.82,0010.83,0010.11
2022-02-26 11:14:00,,0829.3,5.00,0.00,22.1,21.5,00.0,31.0,23.7,06.8,0000.4,0014.73,0010.77,0010.06
2022-02-26 11:15:00,,0829.3,5.00,0.00,22.0,21.4,00.0,31.0,23.6,06.8,0000.4,0014.71,0010.73,0010.01
2022-02-26 11:16:00,,0829.3,4.99,0.00,22.0,21.2,00.0,31.0,23.5,06.9,0000.7,0014.66,0010.66,0009.95
2022-02-26 11:17:00,,0829.2,5.01,0.00,21.9,21.1,00.0,31.0,23.4,06.9,0000.6,0014.66,0010.62,0009.93
2022-02-26 11:18:00,,0829.4,4.98,0.00,21.9,21.5,00.0,31.0,23.5,06.9,0000.5,0014.64,0010.57,0009.88
2022-02-26 11:19:00,,0829.4,5.02,0.00,22.0,22.2,00.0,31.0,23.8,06.9,0000.6,0015.03,0010.58,0009.86
2022-02-26 11:20:00,,0829.3,5.01,0.00,22.1,23.0,00.0,31.0,24.0,06.8,0000.9,0015.12,0010.54,0009.84
2022-02-26 11:21:00,,0829.2,4.98,0.00,22.3,23.2,00.0,31.1,24.2,06.8,0001.2,0014.88,0010.43,0009.77
2022-02-26 11:22:00,,0829.3,5.00,0.00,22.3,22.9,00.0,31.1,24.1,06.8,0000.9,0014.87,0010.34,0009.67
2022-02-26 11:23:00,,0829.4,4.99,0.00,22.2,22.4,00.0,31.1,24.0,06.8,0000.5,0014.73,0010.24,0009.58
2022-02-26 11:24:00,,0829.3,5.00,0.00,22.2,22.0,00.0,31.1,23.8,06.8,-000.0,0014.80,0010.18,0009.51
2022-02-26 11:25:00,,0829.3,5.01,0.00,22.1,21.7,00.0,31.1,23.7,06.8,-000.1,0015.95,0010.20,0009.50
2022-02-26 11:26:00,,0829.4,5.00,0.00,22.0,21.5,00.0,31.1,23.6,06.9,-000.2,0016.13,0010.24,0009.50
2022-02-26 11:27:00,,0829.4,5.00,0.00,22.0,21.3,00.0,31.0,23.5,06.9,-000.4,0016.15,0010.23,0009.47
2022-02-26 11:28:00,,0829.4,4.99,0.00,21.9,21.2,00.0,31.0,23.4,06.9,-000.5,0016.03,0010.20,0009.45
2022-02-26 11:29:00,,0829.4,4.99,0.00,21.9,21.1,00.0,31.0,23.4,06.9,-000.6,0016.09,0010.24,0009.47
2022-02-26 11:30:00,,0829.4,5.00,0.00,21.9,21.7,00.0,31.0,23.6,06.9,-000.5,0015.74,0010.21,0009.48
2022-02-26 11:31:00,,0829.4,5.00,0.00,22.0,22.4,00.0,31.0,23.8,06.9,-000.8,0015.48,0010.26,0009.48
2022-02-26 11:32:00,,0829.4,5.01,0.00,22.2,23.1,00.0,31.1,24.1,06.8,-000.7,0016.03,0010.34,0009.54
2022-02-26 11:33:00,,0829.4,5.00,0.00,22.3,23.0,00.0,31.1,24.1,06.8,-000.2,0016.48,0010.36,0009.58
2022-02-26 11:34:00,,0829.4,5.00,0.00,22.3,22.7,00.0,31.1,24.1,06.8,-000.3,0016.61,0010.40,0009.62
2022-02-26 11:35:00,,0829.4,4.99,0.00,22.2,22.3,00.0,31.1,24.0,06.8,-000.2,0016.64,0010.43,0009.65
2022-02-26 11:36:00,,0829.5,5.01,0.00,22.2,22.1,00.0,31.1,23.8,06.8,0000.0,0015.76,0010.46,0009.67
2022-02-26 11:37:00,,0829.6,5.00,0.00,22.1,21.8,00.0,31.1,23.8,06.8,0000.4,0015.55,0010.44,0009.68
2022-02-26 11:38:00,,0829.5,5.00,0.00,22.1,21.6,00.0,31.1,23.7,06.8,0000.6,0015.57,0010.45,0009.69
2022-02-26 11:39:00,,0829.5,5.00,0.00,22.0,21.3,00.0,31.1,23.6,06.8,0000.4,0015.83,0010.53,0009.71
2022-02-26 11:40:00,,0829.5,5.01,0.00,21.9,21.1,00.0,31.1,23.4,06.9,0000.4,0015.98,0010.56,0009.70
2022-02-26 11:41:00,,0829.5,5.00,0.00,21.9,21.1,00.0,31.0,23.4,06.9,0000.7,0016.14,0010.65,0009.74
2022-02-26 11:42:00,,0829.5,4.99,0.00,21.9,21.8,00.0,31.0,23.6,06.9,0000.9,0016.19,0010.68,0009.77
2022-02-26 11:43:00,,0829.5,5.00,0.00,22.1,22.6,00.0,31.1,23.8,06.8,0001.1,0016.30,0010.64,0009.75
2022-02-26 11:44:00,,0829.4,5.00,0.00,22.2,22.7,00.0,31.1,24.0,06.8,0001.3,0015.67,0010.66,0009.75
2022-02-26 11:45:00,,0829.3,5.00,0.00,22.2,22.5,00.0,31.1,24.0,06.8,0001.4,0015.66,0010.69,0009.80
2022-02-26 11:46:00,,0829.2,4.99,0.00,22.1,22.2,00.0,31.1,23.9,06.8,0001.6,0015.63,0010.71,0009.84
2022-02-26 11:47:00,,0829.5,5.00,0.00,22.1,21.8,00.0,31.1,23.7,06.8,0001.7,0015.55,0010.72,0009.86
2022-02-26 11:48:00,,0829.3,5.01,0.00,22.0,21.5,00.0,31.1,23.5,06.8,0001.7,0015.82,0010.75,0009.87
2022-02-26 11:49:00,,0829.2,5.00,0.00,21.9,21.2,00.0,31.0,23.4,06.9,0001.2,0015.78,0010.75,0009.88
2022-02-26 11:50:00,,0829.3,5.00,0.00,21.8,21.0,00.0,31.0,23.3,06.9,0001.3,0015.76,0010.75,0009.89
2022-02-26 11:51:00,,0829.4,5.01,0.00,21.7,21.0,00.0,31.0,23.2,07.0,0001.5,0016.18,0010.74,0009.89
2022-02-26 11:52:00,,0829.5,5.01,0.00,21.8,21.6,00.0,31.0,23.4,07.0,0001.8,0016.32,0010.68,0009.85
2022-02-26 11:53:00,,0829.5,5.00,0.00,21.9,22.3,00.0,31.0,23.7,06.9,0002.0,0016.65,0010.68,0009.83
2022-02-26 11:54:00,,0829.5,4.99,0.00,22.1,22.8,00.0,31.0,23.9,06.9,0001.7,0016.51,0010.69,0009.84
2022-02-26 11:55:00,,0829.5,5.00,0.00,22.2,23.1,00.0,31.1,24.1,06.8,0001.0,0016.82,0010.71,0009.86
2022-02-26 11:56:00,,0829.5,5.00,0.00,22.1,22.6,00.0,31.1,23.9,06.8,0001.0,0016.86,0010.73,0009.89
2022-02-26 11:57:00,,0829.5,5.01,0.00,22.1,22.1,00.0,31.1,23.7,06.9,0001.1,0016.86,0010.77,0009.92
2022-02-26 11:58:00,,0829.5,4.99,0.00,22.0,21.7,00.0,31.0,23.5,06.9,0001.1,0016.81,0010.81,0009.96
2022-02-26 11:59:00,,0829.5,5.00,0.00,21.9,21.5,00.0,31.0,23.4,06.9,0001.0,0016.75,0010.87,0009.99
